sat.trackr.live / text

‹ back to catalog

STARLINK-3734

NORAD 52112 · 2022-029AA

PAYLOAD ACTIVE UNKNOWN

§ Identity

Operator
Country
US
Launch date
2022-03-19
Launch site
AFETR
Launch vehicle
Mass (kg)
RCS (m²)

Purposes: comms

External: N2YO · Heavens-Above · Gunter

§ Orbital elements

Epoch: 2026-09-19T14:22:23.015136Z

Period
94.02 min
Inclination
53.1625°
Eccentricity
0.0001192
Mean motion
15.31642277 rev/d
Perigee alt
470.1 km
Apogee alt
471.7 km
Semi-major
6,849.0 km
B*
5.7806e-4
RAAN
253.5434°
Arg perigee
72.3097°
Mean anomaly
287.8035°
Rev number
25,055

§ Raw data

STARLINK-37341 52112U 22029AA  26262.59887749  .00017583  00000+0  57806-3 0  99932 52112  53.1625 253.5434 0001192  72.3097 287.8035 15.31642277250550

JSON: /api/v1/satellites/52112 · /tle

For live sub-satellite position, see the globe view (requires WebGL).

§ Visibility from observer

Set your observer location to see the next 7 days of passes ≥ 10°. The values pass through the URL so the page stays shareable.

No JS? Fill the form by hand. The geolocation button needs JavaScript.